Location: Austin
(30.3000°N, 97.7500°W)
Time: 12:07:36
(UTC-05:00)

Okean O Rocket - Pass Details

Date: 26 May 2023
Orbit: 621 x 641 km, 98.1° (Epoch: 31 May)

Event Time Altitude Azimuth Distance (km) Brightness Sun altitude
Exits shadow 21:07:53 - 169° (SSE) 2,831 4.5 -9.0°
Reaches altitude 10° 21:09:54 10° 170° (S) 1,993 3.8 -9.4°
Maximum altitude 21:14:15 82° 258° (WSW) 639 1.7 -10.2°
Drops below altitude 10° 21:18:39 10° 346° (NNW) 2,017 4.9 -11.0°
Sets 21:20:51 0° 347° (NNW) 2,932 5.8 -11.4°
